Regional Weather Roundup
Issued by NWS

Home | Current Version | Previous Version | Text Only | Print | Product List | Glossary Off
Versions: 1 2 3 4 5 6 7 8 9 10 11 12 13 14 15 16 17 18 19 20 21 22 23 24 25 26 27 28 29 30 31 32 33 34 35 36 37 38 39 40 41 42 43 44 45 46 47 48 49 50

939
ASUS43 KLOT 242204
RWRIL

ILLINOIS REGIONAL WEATHER ROUNDUP
NATIONAL WEATHER SERVICE CHICAGO/ROMEOVILLE IL
400 PM CST FRI FEB 24 2017

NOTE: "FAIR" INDICATES FEW OR NO CLOUDS BELOW 12,000 FEET WITH NO
SIGNIFICANT WEATHER AND/OR OBSTRUCTIONS TO VISIBILITY.

* THESE STATIONS ARE NOT UNDER NWS QUALITY CONTROL. THEY ALSO MAY NOT
  REPORT WEATHER SUCH AS PRECIPITATION OR FOG.

ILZ001-002-007-009-015-016-024-242300-
NORTHWEST ILLINOIS

CITY           SKY/WX    TMP DP  RH WIND       PRES   REMARKS
MOLINE         CLOUDY    40  34  79 NW9       29.57R HAZE
STERLING*      MIX PCPN  37  36  96 NW6       29.56R FOG     WCI  32
$$

ILZ003-004-008-010-011-017-018-242300-
NORTH CENTRAL ILLINOIS

CITY           SKY/WX    TMP DP  RH WIND       PRES   REMARKS
ROCKFORD       DRIZZLE   37  34  89 N9        29.54R FOG     WCI  30
FREEPORT*      CLOUDY    32  32  99 N12       29.56R FOG     WCI  23
ROCHELLE*      CLOUDY    37  36  98 NW5       29.54R FOG     WCI  33
DE KALB*       DRIZZLE   37  36  98 N5        29.52R WCI  33
PERU*          CLOUDY    41  37  86 W12       29.55R
$$

ILZ005-006-012>014-019>023-242300-
NORTHEAST ILLINOIS

CITY           SKY/WX    TMP DP  RH WIND       PRES   REMARKS
CHICAGO-OHARE  CLOUDY    40  38  93 NW5       29.48R FOG
CHICAGO-MIDWAY CLOUDY    41  37  86 NW9       29.48R
AURORA         CLOUDY    41  39  93 NW8       29.52R FOG
LANSING*       CLOUDY    45  44  94 CALM      29.47S
JOLIET*        CLOUDY    47  46  93 W12G24    29.51R FOG
WAUKEGAN       CLOUDY    36  34  92 N8G18     29.47R WCI  30
DUPAGE AIRPORT FOG       40  37  89 NW6       29.50R VSB 1
KANKAKEE*      CLOUDY    51  44  79 W26G32    29.51R
WHEELING       CLOUDY    38  36  92 NW5       29.50R FOG     WCI  34
MORRIS*        CLOUDY    45  41  86 W18G25    29.51R
ROMEOVILLE*    CLOUDY    46  46 100 W16       29.50R FOG
$$

LMZ740>746-242300-
SOUTHERN LAKE MICHIGAN

STATION/POSITION SKY/WX   TEMP    WIND        PRES    VSBY  WAVE
                          AIR SEA DIR/SP/G                  HT/PER
                          (F)     (DEG/KT/KT) (MB)    (MI)  (FT/S)
HARRISON CRIB              36     330/ 20/ 21   N/A
BURNHAM HARBOR             39     270/  9/ 12   N/A
CALUMET HARBOR             38     330/  9/ 12  997.8R
BURNS HARBOR               36     300/  9/ 12  999.0R
MICHIGAN CITY              36     230/ 13/ 14   N/A
$$

ILZ025>027-034>036-040-047-049-050-058-095>099-242300-
WEST-CENTRAL ILLINOIS

CITY           SKY/WX    TMP DP  RH WIND       PRES   REMARKS
QUINCY         LGT RAIN  42  39  89 W12       29.62R
GALESBURG*     CLOUDY    40  37  86 SW12G21   29.58R
MACOMB*        CLOUDY    43  38  84 W17G24    29.62R
JACKSONVILLE*  CLOUDY    46  40  80 W10       29.62R
$$

ILZ028>032-037-038-041>044-048-051>054-059>061-242300-
CENTRAL ILLINOIS

CITY           SKY/WX    TMP DP  RH WIND       PRES   REMARKS
PONTIAC        CLOUDY    46  44  91 W22G32    29.56R
BLOOMINGTON    CLOUDY    45  39  79 W20G31    29.58R
DECATUR        PTSUNNY   52  40  63 W21G31    29.58R
PEORIA         CLOUDY    44  37  76 W17       29.59R
LACON*         CLOUDY    42  37  82 W16G22    29.56R
LINCOLN*       CLOUDY    47  41  78 W8G17     29.60R
SPRINGFIELD    CLOUDY    51  39  63 W21G29    29.61R
TAYLORVILLE    MOSUNNY   52  39  62 W16G29    29.60R
$$

ILZ033-039-045-046-055>057-062-063-242300-
EAST-CENTRAL ILLINOIS

CITY           SKY/WX    TMP DP  RH WIND       PRES   REMARKS
CHAMPAIGN      MOSUNNY   55  41  59 W28G35    29.54S
RANTOUL*       SUNNY     58  45  61 W20G37    29.54R
MATTOON        CLOUDY    54  47  77 W20       29.56R
$$

ILZ079-100>102-242300-
SOUTHWEST ILLINOIS

CITY           SKY/WX    TMP DP  RH WIND       PRES   REMARKS
CAHOKIA*       MOSUNNY   57  38  48 W14G20    29.63R
SPARTA*        CLOUDY    59  44  56 W16G24    29.61F
$$

ILZ064>066-069>071-074>076-080>082-084>086-088>090-092>094-242300-
SOUTH-CENTRAL ILLINOIS

CITY           SKY/WX    TMP DP  RH WIND       PRES   REMARKS
CARBONDALE     TSTM      55  55 100 CALM      29.62R FOG
CAIRO*         PTSUNNY   63  56  78 S12G24    29.62S
EFFINGHAM*     CLOUDY    55  49  80 W13       29.59R
MARION         CLOUDY    64  54  68 W7G20     29.61R
MT. VERNON     LGT RAIN  57  50  77 W8        29.59R
CENTRALIA*     LGT RAIN  54  50  87 W12       29.59S
SALEM*         CLOUDY    54  48  82 W8        29.60R
METROPOLIS*    CLOUDY    64  56  75 SW13G21   29.63S
$$

ILZ067-068-072-073-078-083-087-091-242300-
SOUTHEAST ILLINOIS

CITY           SKY/WX    TMP DP  RH WIND       PRES   REMARKS
LAWRENCEVILLE  CLOUDY    68  55  63 SW22G28   29.54R
FLORA*         RAIN      58  50  75 W16       29.59R
FAIRFIELD*     CLOUDY    60  51  74 NW5       29.56R
HARRISBURG*    CLOUDY    66  57  73 S15G21    29.58F
ROBINSON*      CLOUDY    65  55  67 W22       29.53S
CARMI*         LGT RAIN  64  57  80 SW16G24   29.58R
$$

ABBREVIATIONS USED IN REMARKS
   TC - TEMPERATURE IN CELSIUS
  WCI - WIND CHILL INDEX
   HX - HEAT INDEX
  VSB - VISIBILITY
$$





USA.gov is the U.S. government's official web portal to all federal, state and local government web resources and services.